Miscellaneous Local Product
Issued by NWS North Platte, NE

Home | Current Version | Previous Version | Graphics & Text | Print | Product List | Glossary On
Versions: 1 2 3 4 5 6 7 8 9 10 11 12 13 14 15 16 17 18 19 20 21 22 23 24 25 26 27 28 29 30 31 32 33 34 35 36 37 38 39 40 41 42 43 44 45 46 47 48 49 50
000
AXUS43 KLBF 171010
MISLBF


WESTERN AND NORTH CENTRAL NEBRASKA HOURLY WEATHER ROUNDUP
NATIONAL WEATHER SERVICE NORTH PLATTE NE
500 AM CDT FRI APR 17 2015

***STATIONS NOT REPORTING VARIABLES SUCH AS SKY/WEATHER OR
PRESSURE ARE PROVIDED BY THE NEBRASKA DEPARTMENT OF
ROADS...RAWS...AND APRS NETWORKS...AND ARE NOT UNDER
NATIONAL WEATHER SERVICE QUALITY CONTROL***

...OBSERVATIONS IN AND NEAR THE EASTERN PANHANDLE OF NEBRASKA...

CITY           SKY/WX    TMP DP  RH WIND       PRES   REMARKS
PINE RIDGE     CLOUDY    44  37  76 NE3       30.17F
CHADRON        CLOUDY    44  38  79 CALM      30.18S
ALLIANCE       LGT RAIN  45  41  86 NE14      30.13F
SIDNEY         LGT RAIN  46  45  96 NE14      30.07F FOG
$$

...OBSERVATIONS IN NORTH CENTRAL NEBRASKA...

CITY           SKY/WX    TMP DP  RH WIND       PRES   REMARKS
VALENTINE      CLOUDY    51  36  56 NE10      30.15S
THEDFORD       LGT RAIN  49  47  92 NE7       30.14S
AINSWORTH      CLOUDY    50  42  75 CALM      30.15R
O`NEILL        CLOUDY    52  49  91 N3        30.13S
ORD            LGT RAIN  54  49  83 E3        30.11R
BROKEN BOW     RAIN      54  51  90 NE6       30.11R FOG
$$

...OBSERVATIONS IN SOUTHWEST NEBRASKA AND FAR NORTHEAST COLORADO...

CITY           SKY/WX    TMP DP  RH WIND       PRES   REMARKS
WRAY           PTSUNNY   49  49 100 NE7       30.03F
HOLYOKE        LGT RAIN  52  48  87 NE8       30.04F
IMPERIAL       LGT RAIN  51  49  92 E13       30.04F
OGALLALA       LGT RAIN  51  50  97 E9        30.08F
NORTH PLATTE   RAIN      51  50  96 NE6       30.10F
MCCOOK         LGT RAIN  53  51  93 NE12      30.05F FOG
LEXINGTON      RAIN      54  53  96 CALM      30.10S
$$

...NORTH PLATTE AREA...

CITY           SKY/WX    TMP DP  RH WIND       PRES   REMARKS
AIRPORT        RAIN      51  50  96 NE6       30.10F
$$

...SOME WEATHER OBSERVATIONS FROM AROUND THE REGION...

CITY           SKY/WX    TMP DP  RH WIND       PRES   REMARKS
DENVER         LGT RAIN  34  33  96 SW13      30.04F VSB 1/4 WCI  25
LARAMIE        FLURRIES  31  29  92 NE18      30.09F WCI  19
CHEYENNE       LGT SNOW  33  32  96 N16G26    30.10F FOG     WCI  23
SCOTTSBLUFF    LGT RAIN  45  43  93 NE24G32   30.12F
RAPID CITY     PTCLDY    39  29  67 NW9       30.20R WCI  33
PIERRE         CLEAR     38  32  79 N7        30.17R WCI  33
WINNER         MOCLDY    47  35  63 W3        30.15F
SIOUX FALLS    MOCLDY    49  40  71 N3        30.12S
OMAHA          CLOUDY    55  51  86 N8        30.09R
GRAND ISLAND   LGT RAIN  54  51  90 E3        30.11R
KANSAS CITY    MOCLDY    57  53  86 E7        30.04S
WICHITA        RAIN      59  56  89 E3        30.01F FOG
HAYS           CLOUDY    55  46  71 E22G28    29.97F
LIBERAL        CLOUDY    54  48  82 SE8       29.99R
GOODLAND       LGT RAIN  50  50 100 E10       30.02F FOG
$$



USA.gov is the U.S. government's official web portal to all federal, state and local government web resources and services.